Arlington, TX

7:16 AM CST on February 21, 2017 (GMT -0600)
Arlington Municipal

Weather History for KGKY - August, 2013

Change the Weather History Date:

Monday, August 26, 2013

  Actual Average (KRBD) Record (KRBD)
Temperature  
Mean Temperature 86 °F -  
Max Temperature 96 °F 91 °F 106 °F (2011)
Min Temperature 75 °F 71 °F 66 °F (1997)
Cooling Degree Days 20    
Growing Degree Days 36 (Base 50)    
Moisture  
Dew Point 66 °F    
Average Humidity 55    
Maximum Humidity 79    
Minimum Humidity 30    
Precipitation  
Precipitation 0.00 in - - ()
Sea Level Pressure  
Sea Level Pressure 30.09 in    
Wind  
Wind Speed 9 mph (ESE)    
Max Wind Speed 17 mph    
Max Gust Speed 28 mph    
Visibility 10 miles    
Events      
Averages and records for this station are not official NWS values.
T = Trace of Precipitation, MM = Missing Value Source: NWS Daily Summary

Daily Weather History Graph

Daily Weather History Graph

Search for Another Location

Airport or City:

Trip Planner

Search our weather history database for the weather conditions in past years. The results will help you decide how hot, cold, wet, or windy it might be!

Date:

Astronomy

Aug. 26, 2013 Rise Set
Actual Time 6:59 AM CDT 8:00 PM CDT
Civil Twilight 6:34 AM CDT 8:25 PM CDT
Nautical Twilight 6:03 AM CDT 8:55 PM CDT
Astronomical Twilight 5:32 AM CDT 9:26 PM CDT
Moon 11:34 PM CDT (8/26) 12:39 PM CDT (8/26)
Length of Visible Light 13h 51m
Length of Day
13h 00m
Waning Gibbous, 66% of the Moon is Illuminated
Aug 26
Waning Gibbous
Aug 28
Last Quarter
Sep 5
New
Sep 12
First Quarter
Sep 19
Full

Hourly Weather History & Observations

Time (CDT) Temp. Heat Index Dew Point Humidity Pressure Visibility Wind Dir Wind Speed Gust Speed Precip Events Conditions
12:53 AM 84.0 °F 85.8 °F 64.9 °F 53% 30.09 in 10.0 mi ESE 9.2 mph - N/A   Clear
1:53 AM 82.0 °F 84.5 °F 66.9 °F 60% 30.09 in 10.0 mi SE 9.2 mph - N/A   Clear
2:53 AM 81.0 °F 83.8 °F 68.0 °F 65% 30.10 in 10.0 mi SE 8.1 mph - N/A   Clear
3:53 AM 80.1 °F 82.3 °F 66.9 °F 64% 30.10 in 10.0 mi SSE 8.1 mph - N/A   Clear
4:53 AM 78.1 °F - 68.0 °F 71% 30.11 in 10.0 mi Calm Calm - N/A   Clear
5:53 AM 77.0 °F - 68.0 °F 74% 30.12 in 10.0 mi ESE 4.6 mph - N/A   Clear
6:53 AM 75.9 °F - 69.1 °F 79% 30.13 in 10.0 mi ESE 6.9 mph - N/A   Clear
7:53 AM 77.0 °F - 69.1 °F 76% 30.14 in 10.0 mi ESE 6.9 mph - N/A   Clear
8:53 AM 79.0 °F - 70.0 °F 74% 30.14 in 10.0 mi ESE 11.5 mph - N/A   Clear
9:53 AM 82.9 °F 85.8 °F 68.0 °F 60% 30.15 in 10.0 mi ESE 11.5 mph - N/A   Clear
10:53 AM 84.9 °F 88.2 °F 68.0 °F 57% 30.15 in 10.0 mi ESE 9.2 mph - N/A   Clear
11:53 AM 87.1 °F 89.9 °F 66.9 °F 51% 30.14 in 10.0 mi ESE 12.7 mph 17.3 mph N/A   Partly Cloudy
12:53 PM 91.0 °F 93.8 °F 66.0 °F 44% 30.12 in 10.0 mi East 10.4 mph 20.7 mph N/A   Clear
1:53 PM 91.9 °F 94.5 °F 66.0 °F 42% 30.09 in 10.0 mi East 9.2 mph - N/A   Clear
2:53 PM 95.0 °F 95.6 °F 62.1 °F 33% 30.05 in 10.0 mi East 15.0 mph 25.3 mph N/A   Partly Cloudy
3:53 PM 96.1 °F 96.0 °F 60.1 °F 30% 30.04 in 10.0 mi ESE 17.3 mph 26.5 mph N/A   Clear
4:53 PM 95.0 °F 95.2 °F 61.0 °F 32% 30.02 in 10.0 mi East 13.8 mph 20.7 mph N/A   Scattered Clouds
5:53 PM 95.0 °F 94.8 °F 60.1 °F 31% 30.02 in 10.0 mi East 12.7 mph - N/A   Scattered Clouds
6:53 PM 91.9 °F 91.5 °F 60.1 °F 34% 30.02 in 10.0 mi SE 17.3 mph 23.0 mph N/A   Clear
7:53 PM 90.0 °F 90.0 °F 61.0 °F 38% 30.03 in 10.0 mi ESE 9.2 mph - N/A   Clear
8:53 PM 84.9 °F 87.1 °F 66.0 °F 53% 30.04 in 10.0 mi SSE 15.0 mph 27.6 mph N/A   Partly Cloudy
9:53 PM 82.0 °F 84.5 °F 66.9 °F 60% 30.05 in 10.0 mi SE 11.5 mph - N/A   Clear
10:53 PM 80.1 °F 82.7 °F 68.0 °F 67% 30.06 in 10.0 mi SSE 8.1 mph - N/A   Clear
11:53 PM 79.0 °F - 68.0 °F 69% 30.05 in 10.0 mi SSE 8.1 mph - N/A   Clear